GFSFLT1_850_thetae_132.txt.gz
Theta_e
320 317 317 331 331 330 330 332 333 333 335 336 338 338 338 338 338 336 334 327 323 331 332 332 334 335 336 335 331 334 326 327 333
321 317 317 333 333 329 329 330 330 332 334 336 338 338 337 335 334 333 333 334 332 321 331 332 334 335 336 335 335 334 334 326 326
323 317 316 331 337 330 330 330 328 328 333 336 337 337 336 334 332 333 334 334 338 334 330 330 331 332 334 335 335 335 334 333 328
324 317 316 333 331 328 330 328 325 325 330 335 336 336 335 334 332 333 333 332 333 330 332 331 331 331 330 333 334 334 333 332 333
326 317 316 331 328 329 331 329 328 327 329 333 334 334 332 332 328 329 330 333 333 328 330 330 330 331 331 331 330 326 328 330 332
328 318 314 329 327 329 329 332 327 324 322 321 328 332 330 328 324 322 327 323 318 316 313 314 316 317 323 327 329 328 327 322 322
329 320 313 327 328 326 327 326 324 318 316 317 320 325 325 320 313 320 321 320 318 312 311 311 310 308 307 307 307 308 311 318 322
332 322 312 324 327 326 325 323 319 316 312 315 321 320 313 310 310 319 317 318 315 311 308 307 306 306 306 306 306 305 305 305 305
333 324 312 317 327 323 322 321 321 309 309 310 311 309 308 310 310 313 315 312 312 309 306 306 305 305 305 305 305 305 305 305 305
333 321 311 312 324 323 320 322 321 309 309 309 308 309 309 309 310 310 309 309 310 309 308 306 305 305 305 305 305 305 305 305 305
329 319 309 313 320 321 321 322 321 317 310 310 309 309 309 309 309 309 310 309 308 308 307 306 306 306 306 306 306 306 306 306 306
325 317 307 313 322 323 323 323 322 318 312 310 310 310 310 309 309 309 308 308 307 306 306 306 306 306 307 307 307 308 308 307 307
330 316 309 320 324 323 323 324 322 319 316 312 310 310 310 309 309 308 308 307 307 307 306 306 306 306 307 307 308 308 308 308 308
330 315 313 322 323 323 323 323 322 319 317 313 311 310 310 309 308 307 307 307 307 307 307 306 306 306 306 307 307 307 308 308 308
322 314 318 321 322 323 323 322 322 319 316 313 312 311 310 309 308 308 308 307 307 307 307 307 307 306 306 307 307 307 307 308 309
322 314 315 317 318 321 322 321 322 318 315 313 313 312 312 311 311 310 310 309 308 308 308 308 308 307 307 307 307 308 307 309 309
322 314 314 312 316 321 318 319 321 317 315 313 313 314 313 311 311 311 311 310 310 310 309 309 308 308 308 308 308 308 308 308 308
327 324 322 320 313 319 317 317 317 316 315 314 312 313 312 312 312 311 310 311 310 310 310 310 309 309 308 308 308 308 308 308 308
326 325 321 319 317 317 316 314 314 314 314 313 311 311 310 311 311 311 311 311 311 311 311 310 310 309 309 309 308 308 308 307 307
328 325 323 317 313 313 314 313 312 312 312 311 311 311 312 312 312 311 311 311 311 311 310 310 310 309 309 308 307 306 306 306 306

GFSFLT1_850_thetae_138.txt.gz
Theta_e
328 331 332 332 333 331 333 334 336 334 333 328 327 329 336 338 337 336 337 335 336 336 337 337 335 335 335 334 334 336 337 334 336
333 333 333 332 333 333 333 333 336 337 338 338 336 336 339 339 340 336 335 333 335 336 337 337 335 336 335 334 334 335 337 335 336
327 334 331 330 332 331 334 335 335 336 337 337 334 336 338 338 338 336 334 332 331 334 335 335 333 333 335 335 332 334 336 336 336
322 334 331 331 331 331 329 332 335 335 336 336 333 336 336 336 333 335 333 333 332 330 332 333 332 330 331 332 332 332 334 336 336
323 324 327 333 332 329 326 330 332 335 336 335 334 332 333 333 331 330 330 331 328 329 328 329 328 330 329 329 330 330 331 334 335
325 334 330 327 332 330 325 331 332 333 335 335 333 333 333 330 329 328 328 325 323 320 317 313 311 313 316 320 320 320 322 325 330
335 333 328 331 334 332 326 329 329 332 334 334 333 332 330 328 328 328 328 325 324 319 314 312 309 308 307 307 310 316 319 322 326
332 334 330 333 333 332 327 324 328 329 329 331 331 329 326 326 326 326 325 323 319 317 312 309 308 307 306 306 306 306 306 309 315
331 335 335 334 333 335 329 327 326 326 326 326 327 325 325 325 325 325 323 323 321 318 312 309 306 305 305 305 305 305 305 305 305
330 334 336 335 331 330 326 324 325 325 326 325 324 324 325 325 325 324 324 322 319 317 312 308 306 306 306 306 306 306 306 306 305
331 331 332 331 329 326 319 322 323 324 324 323 323 324 324 324 324 323 322 322 320 318 312 309 307 308 308 309 309 309 309 309 309
333 328 326 328 328 324 323 321 321 322 322 323 323 323 323 323 323 322 322 320 315 313 311 309 308 309 309 309 310 310 310 310 310
333 328 322 325 326 324 323 320 321 322 322 322 322 322 321 321 321 321 321 320 317 309 308 308 308 308 308 308 309 309 310 310 309
332 330 321 322 322 323 322 321 320 321 321 321 321 320 320 319 319 318 318 316 320 316 307 307 307 308 308 308 308 309 309 309 309
332 329 319 312 320 321 323 320 320 320 320 319 319 319 318 318 317 317 317 309 308 316 315 316 309 307 307 308 308 309 309 309 309
331 328 319 312 320 322 323 322 321 320 319 318 318 317 316 316 316 315 314 311 311 309 309 314 316 311 307 307 308 309 309 309 309
331 327 320 312 321 322 323 323 321 320 318 317 316 316 315 315 314 314 314 313 310 313 312 313 312 310 311 308 308 309 309 310 309
330 328 320 313 320 322 323 323 321 319 318 318 316 317 316 315 315 314 313 312 309 310 310 309 309 310 310 308 308 308 309 308 308
330 328 313 320 322 322 323 323 323 320 318 317 315 315 315 315 315 314 313 311 312 310 310 310 311 310 310 309 309 308 308 308 307
330 327 315 322 321 320 320 321 323 322 320 317 315 313 312 313 314 314 313 311 311 311 311 311 310 311 310 310 309 309 309 308 307

GFSFLT1_850_thetae_141.txt.gz
Theta_e
334 335 336 332 332 331 333 336 334 333 328 326 334 337 337 337 337 336 336 337 338 337 336 336 336 333 333 335 337 336 336 337 335
330 332 333 331 332 334 333 336 335 337 332 335 338 338 339 335 336 334 333 334 335 336 335 337 337 333 333 336 337 336 335 336 337
334 333 333 332 332 334 333 336 337 338 337 336 338 337 336 335 335 334 332 331 333 333 333 331 335 334 333 335 337 337 336 334 334
334 334 331 332 331 332 333 334 336 336 336 335 337 336 334 334 333 334 331 332 331 332 330 330 329 332 333 333 335 336 336 337 333
334 334 331 331 331 329 330 334 334 335 335 334 332 333 332 331 330 330 329 331 328 328 325 326 329 325 323 328 329 333 335 335 335
332 334 330 334 332 328 327 331 333 335 335 333 333 332 330 329 328 329 329 325 324 322 320 320 319 319 321 320 323 326 329 331 332
335 334 328 332 332 327 327 332 332 334 333 333 331 330 329 328 327 328 328 325 324 319 315 316 314 313 309 310 315 319 323 326 328
337 334 329 332 334 332 329 330 331 334 332 331 330 328 327 327 327 326 326 324 323 319 311 307 306 307 307 306 306 306 307 310 313
335 335 335 335 334 334 331 329 329 329 328 329 328 326 326 326 325 324 324 322 322 318 310 306 306 306 305 305 305 305 305 305 305
333 335 335 333 335 330 328 327 326 326 326 327 325 326 326 326 324 324 323 323 321 319 312 308 307 307 308 308 308 308 307 307 306
329 334 334 332 332 329 326 325 325 326 326 324 324 325 325 325 324 322 323 322 322 320 315 311 310 310 310 310 311 311 311 311 311
331 332 334 333 330 327 324 323 324 324 324 324 324 324 324 324 324 323 320 319 317 311 309 310 310 310 310 310 311 311 310 310 310
331 331 333 329 328 325 322 322 323 323 323 323 323 323 323 323 323 322 322 320 314 309 309 309 309 309 309 309 309 310 310 309 309
331 330 332 328 327 324 322 322 323 323 323 323 322 322 321 321 321 322 322 321 321 310 309 308 308 309 309 309 309 309 309 309 309
332 330 331 327 325 324 322 321 322 322 322 321 321 321 320 319 319 319 319 321 320 317 314 317 308 308 308 309 309 309 309 309 309
332 331 328 324 325 325 324 322 321 321 320 320 320 319 319 318 318 317 318 316 317 317 315 318 317 312 308 307 308 309 309 309 309
331 330 328 322 324 324 324 322 321 320 319 319 318 318 317 317 316 316 316 316 315 315 315 316 315 314 313 308 308 308 309 309 309
326 329 328 322 322 325 324 322 321 320 319 318 318 317 317 316 316 315 315 314 313 313 313 313 313 314 313 310 309 309 309 309 308
325 330 324 321 323 324 323 323 321 320 318 318 318 317 317 317 317 315 315 314 313 312 311 311 312 313 312 312 310 309 309 309 308
324 330 323 319 320 323 323 324 323 322 320 319 318 316 315 316 316 316 315 314 314 312 311 311 311 311 311 310 310 310 310 309 308

GFSFLT1_850_thetae_144.txt.gz
Theta_e
334 337 337 333 331 333 331 332 332 331 329 334 336 337 337 333 334 336 337 337 336 337 335 333 335 336 336 335 336 337 335 333 331
331 333 334 332 331 334 334 332 328 327 333 338 337 333 334 333 332 332 334 335 333 334 335 333 334 336 338 338 335 336 337 335 333
330 330 332 332 333 333 335 336 335 335 338 337 336 337 333 333 332 332 333 333 332 332 332 333 333 334 337 337 337 336 333 334 335
334 333 331 333 332 333 335 336 337 335 336 335 333 334 333 331 330 330 330 329 331 326 320 322 332 333 334 335 336 336 335 332 333
334 333 330 331 330 332 333 335 335 334 335 334 332 331 330 326 326 329 328 329 327 326 325 328 330 329 326 329 330 332 332 332 331
333 333 330 330 330 328 332 333 334 333 333 332 330 329 329 324 327 328 328 326 325 324 321 321 322 323 323 326 327 328 329 329 330
331 331 331 333 332 327 326 332 334 334 332 330 329 328 328 323 326 327 325 324 324 320 317 317 319 319 319 319 318 320 322 325 327
334 334 328 332 333 325 329 331 330 328 330 329 328 327 326 324 325 326 325 323 323 319 316 315 315 312 310 309 307 306 306 308 311
334 335 329 330 334 327 328 330 331 333 328 329 327 326 326 322 325 325 322 323 322 319 315 311 307 307 306 306 305 305 305 305 305
333 336 333 333 332 330 327 329 328 329 327 327 326 326 324 321 324 323 324 322 320 317 315 313 309 309 310 310 310 310 310 310 310
324 326 336 334 333 330 329 326 325 326 326 325 326 325 325 321 321 322 322 321 318 318 315 311 311 311 311 311 312 312 311 311 310
322 325 333 333 331 329 326 325 326 326 324 325 325 325 324 321 319 320 318 317 312 312 313 312 311 310 310 310 310 310 310 310 309
325 323 329 332 331 330 324 324 326 324 324 324 324 324 323 323 321 317 313 311 310 310 310 310 310 310 309 309 309 309 309 309 309
329 323 329 332 329 323 317 321 324 323 323 323 323 323 323 323 322 321 320 317 309 308 309 309 309 310 309 309 309 309 310 309 309
327 326 331 331 326 322 321 323 323 323 323 323 322 322 322 321 322 321 321 321 314 310 314 313 308 308 309 309 309 310 310 309 309
327 331 331 330 325 323 321 323 323 323 322 321 321 320 319 319 319 318 319 320 318 317 318 317 316 313 309 308 309 309 309 309 309
329 332 331 329 326 324 322 322 322 322 321 320 320 319 318 318 318 317 316 315 316 315 316 316 315 313 310 310 308 309 309 309 309
331 331 331 327 324 323 322 322 322 320 320 319 317 317 317 317 316 316 316 315 315 315 315 315 313 314 313 312 310 310 309 309 308
332 331 330 326 323 323 316 321 321 320 318 316 317 317 317 316 315 315 315 314 313 313 313 311 312 313 313 312 311 310 310 310 309
331 328 327 323 321 320 318 322 321 318 318 318 317 317 317 316 316 315 314 314 314 313 312 311 312 312 311 311 310 311 311 312 312

GFSFLT1_850_thetae_147.txt.gz
Theta_e
338 338 336 333 333 331 330 331 332 332 333 335 336 332 334 335 335 337 337 337 337 334 335 336 337 335 335 337 336 335 332 319 324
335 336 334 331 333 331 331 330 329 333 336 335 334 333 331 331 333 334 337 336 339 334 335 336 337 337 336 335 336 336 336 336 326
332 333 333 332 332 334 332 328 333 337 336 336 334 332 331 330 332 333 331 334 335 333 334 335 335 336 336 336 335 335 335 337 338
332 330 333 332 331 334 335 334 337 335 335 335 333 332 329 328 328 327 330 331 331 333 333 332 333 334 334 333 333 335 335 336 336
333 333 332 331 332 334 336 335 335 334 332 332 331 330 323 318 327 328 329 329 326 331 331 332 332 330 330 330 330 328 327 329 332
334 332 330 331 331 331 334 334 334 333 331 331 329 329 321 325 326 326 327 325 325 324 325 327 329 325 326 325 326 327 328 327 327
334 332 330 331 330 328 332 333 333 331 330 329 328 327 321 326 325 326 324 324 324 323 323 320 319 316 314 314 315 316 318 320 325
335 333 331 333 331 326 332 333 333 330 329 328 327 327 318 325 325 325 325 323 323 321 318 315 311 310 307 306 305 305 305 306 308
333 334 332 333 332 327 330 331 329 329 329 327 326 326 324 324 324 325 325 323 323 321 318 315 310 308 308 308 308 308 308 307 306
326 330 332 330 332 328 330 330 331 327 329 327 326 325 319 320 324 324 325 323 322 322 320 318 316 314 312 312 312 312 312 311 311
322 326 333 331 332 328 328 329 329 327 327 326 326 324 321 316 321 323 322 323 324 322 321 319 316 313 312 311 311 311 311 310 310
326 321 325 332 332 330 328 324 326 325 325 325 325 324 322 316 318 319 320 321 321 319 319 317 312 311 310 310 310 310 310 310 309
320 322 327 329 333 327 328 324 326 325 325 325 324 324 321 315 315 314 312 312 312 315 313 311 310 310 309 310 310 310 310 309 309
328 325 324 327 330 328 325 326 326 324 325 324 324 323 323 321 318 313 310 309 309 309 309 309 309 310 309 309 310 310 309 309 309
328 327 326 326 329 326 325 325 324 324 324 324 324 323 322 322 321 320 319 312 308 309 312 309 308 309 309 310 310 310 309 309 309
330 326 324 327 329 323 322 324 324 323 323 323 322 322 322 322 321 321 320 318 312 316 316 316 314 311 308 309 311 310 309 309 309
330 330 325 329 324 321 322 322 323 323 323 322 321 319 319 320 318 318 318 316 315 315 316 316 315 312 310 310 309 309 309 309 309
330 331 326 330 324 322 323 323 323 322 322 321 320 318 318 318 318 317 316 315 315 316 315 316 315 312 312 312 311 310 309 310 310
330 331 329 330 325 323 321 323 323 322 321 320 318 315 317 317 317 316 316 315 315 315 315 314 312 313 313 312 311 310 311 311 311
331 332 330 326 324 324 321 322 321 320 320 320 315 317 316 316 315 315 315 314 313 313 313 313 311 312 312 311 311 310 310 310 310